Location: Gunnison Valley Observatory
(38.5087°N, 106.9386°W)
Time: 11:28:54
(UTC-06:00)

Amateur Radio Satellites - All Passes

Search period start: 20 April 2014 10:58
Search period end: 21 April 2014 10:58
Location: Gunnison Valley Observatory, 38.5087°N, 106.9386°W

Satellite Date Start Highest point End Downlink Frequencies (MHz)
Time Altitude Azimuth
FUNcube-1 20 Apr 11:04:15 11:07:58 28° 97° (E) 11:11:45 145.950 - 145.970 MHz USB
PANSAT 20 Apr 11:06:03 11:08:40 17° 186° (S) 11:11:16 not established
Oscar 11 20 Apr 11:11:05 11:15:26 70° 285° (WNW) 11:19:45 145.825 FM, Beacon 2401.500 USB
PCSat 20 Apr 11:20:21 11:24:42 25° 253° (WSW) 11:29:02 145.825 MHz
HO-68 20 Apr 11:59:34 12:05:10 26° 300° (WNW) 12:10:47 435.675 MHz FM
KITSAT 1 20 Apr 12:04:22 12:12:26 64° 57° (ENE) 12:20:24 435.175 FM
Oscar 10/S400 20 Apr 12:19:56 13:59:47 40° 255° (WSW) 18:36:19 145.825 - 145.975 CW/USB, Beacon 145.810 USB
Saudisat 1A 20 Apr 12:23:11 12:26:45 23° 312° (NW) 12:30:20 436.775 MHz
RS-15 20 Apr 12:28:24 12:34:38 16° 6° (N) 12:40:52 29.354 - 29.394 USB, Beacon 29.352 USB
FUNcube-1 20 Apr 12:40:54 12:44:15 23° 291° (WNW) 12:47:38 145.950 - 145.970 MHz USB
AO-27 20 Apr 13:10:30 13:13:40 17° 63° (ENE) 13:16:51 436.795 MHz FM
AO-Echo 20 Apr 13:17:30 13:20:19 15° 63° (ENE) 13:23:07 ?
ITAMSAT 1 20 Apr 13:20:19 13:24:00 20° 64° (ENE) 13:27:42 435.822 SSB
Oscar 19 20 Apr 13:21:29 13:26:11 38° 70° (ENE) 13:30:56 437.125 CW, 437.150 USB
Oscar 16 20 Apr 13:29:42 13:34:37 49° 72° (ENE) 13:39:35 437.025 USB, Beacon 2401.1428
KITSAT 1 20 Apr 14:00:47 14:07:11 27° 255° (WSW) 14:13:33 435.175 FM
Uribyol 2 20 Apr 14:06:48 14:11:51 58° 73° (ENE) 14:16:55 436.500 FM
ISS 20 Apr 14:31:44 14:34:37 28° 133° (SE) 14:37:31 145.800 FM
OPAL 20 Apr 14:34:31 14:35:38 11° 92° (E) 14:36:45 ?
RS-15 20 Apr 14:42:02 14:51:47 35° 41° (NE) 15:01:39 29.354 - 29.394 USB, Beacon 29.352 USB
Gurwin Techsat 1B 20 Apr 14:46:29 14:51:24 40° 70° (ENE) 14:56:20 435.225 FM
AO-27 20 Apr 14:47:34 14:52:41 60° 259° (W) 14:57:49 436.795 MHz FM
AO-Echo 20 Apr 14:53:19 14:58:32 67° 258° (WSW) 15:03:39 ?
ITAMSAT 1 20 Apr 14:58:08 15:03:08 48° 260° (W) 15:08:08 435.822 SSB
Oscar 19 20 Apr 15:01:32 15:05:36 24° 265° (W) 15:09:44 437.125 CW, 437.150 USB
Oscar 16 20 Apr 15:10:45 15:14:13 18° 267° (W) 15:17:43 437.025 USB, Beacon 2401.1428
SO-50 20 Apr 15:14:11 15:18:25 44° 116° (ESE) 15:22:42 436.795 FM
Uosat F 20 Apr 15:14:44 15:18:12 19° 64° (ENE) 15:21:41 435.120 FM
JAS-1B 20 Apr 15:29:11 15:36:44 45° 70° (ENE) 15:43:07 435.800 - 435.900 CW/SSB
TMSAT-1 20 Apr 15:33:31 15:38:48 79° 75° (ENE) 15:44:06 436.925 FM
AO-7 20 Apr 15:45:29 15:52:59 40° 62° (ENE) 16:00:30 29.400 - 29.500 MHz
Uribyol 2 20 Apr 15:48:42 15:51:41 15° 268° (W) 15:54:39 436.500 FM
ISS 20 Apr 16:08:17 16:11:18 31° 329° (NNW) 16:14:20 145.800 FM
OPAL 20 Apr 16:09:50 16:15:05 83° 287° (WNW) 16:20:17 ?
Gurwin Techsat 1B 20 Apr 16:27:17 16:31:28 24° 266° (W) 16:35:41 435.225 FM
Uosat F 20 Apr 16:51:46 16:56:37 48° 260° (W) 17:01:28 435.120 FM
RS-15 20 Apr 16:54:10 17:05:04 73° 244° (WSW) 17:16:17 29.354 - 29.394 USB, Beacon 29.352 USB
SO-50 20 Apr 16:55:47 16:59:11 21° 313° (NW) 17:02:37 436.795 FM
TMSAT-1 20 Apr 17:17:45 17:19:17 11° 271° (W) 17:20:49 436.925 FM
JAS-1B 20 Apr 17:20:08 17:27:20 33° 262° (W) 17:33:33 435.800 - 435.900 CW/SSB
UOSAT-12 20 Apr 17:30:05 17:34:31 58° 117° (ESE) 17:39:05 437.025 FM, 437.400 FM
AO-7 20 Apr 17:37:52 17:45:38 44° 260° (W) 17:53:28 29.400 - 29.500 MHz
ISS 20 Apr 17:48:09 17:48:53 11° 348° (NNW) 17:49:37 145.800 FM
OPAL 20 Apr 17:52:03 17:53:06 11° 303° (WNW) 17:54:09 ?
Hamsat 20 Apr 18:48:44 18:52:55 69° 259° (W) 18:57:09 145.90 MHz
STRAND 1 20 Apr 18:50:59 18:54:37 20° 94° (E) 18:58:14 ?
RS-15 20 Apr 19:10:35 19:15:25 14° 263° (W) 19:20:21 29.354 - 29.394 USB, Beacon 29.352 USB
Saudisat 1A 20 Apr 19:11:23 19:14:53 23° 48° (NE) 19:18:22 436.775 MHz
UOSAT-12 20 Apr 19:11:55 19:15:04 18° 316° (NW) 19:18:15 437.025 FM, 437.400 FM
JAS-2 20 Apr 19:16:11 19:22:01 69° 74° (ENE) 19:27:20 435.800 - 435.900 CW/SSB, 435.910 FM
SO-67 20 Apr 19:21:28 19:24:48 44° 75° (ENE) 19:28:10 435.3500 MHz FM
STRAND 1 20 Apr 20:29:10 20:34:00 45° 289° (WNW) 20:38:49 ?
HO-68 20 Apr 20:38:02 20:44:33 40° 65° (ENE) 20:51:04 435.675 MHz FM
Saudisat 1A 20 Apr 20:50:32 20:54:36 38° 245° (WSW) 20:58:38 436.775 MHz
ISS 20 Apr 21:01:40 21:04:34 26° 29° (NNE) 21:07:28 145.800 FM
JAS-2 20 Apr 21:04:48 21:07:29 13° 268° (W) 21:10:05 435.800 - 435.900 CW/SSB, 435.910 FM
MaSat-1 20 Apr 21:54:10 21:57:01 45° 295° (WNW) 21:59:34 437.345 MHz
FUNcube-1 20 Apr 22:00:25 22:03:27 20° 68° (ENE) 22:06:27 145.950 - 145.970 MHz USB
Oscar 11 20 Apr 22:04:32 22:08:49 76° 76° (ENE) 22:13:08 145.825 FM, Beacon 2401.500 USB
HO-68 20 Apr 22:25:43 22:32:12 37° 262° (W) 22:38:44 435.675 MHz FM
ISS 20 Apr 22:38:15 22:41:21 35° 225° (SW) 22:44:26 145.800 FM
Sapphire 20 Apr 23:33:38 23:37:22 19° 105° (ESE) 23:41:06 437.095 MHz 1200 baud AX-25 AFSK
FUNcube-1 20 Apr 23:35:55 23:39:40 31° 263° (W) 23:43:24 145.950 - 145.970 MHz USB
SO-50 20 Apr 23:47:11 23:51:16 29° 50° (NE) 23:55:22 436.795 FM
PCSat 21 Apr 00:16:34 00:21:46 51° 113° (ESE) 00:27:01 145.825 MHz
Sapphire 21 Apr 01:15:02 01:20:19 54° 302° (WNW) 01:25:38 437.095 MHz 1200 baud AX-25 AFSK
SO-50 21 Apr 01:27:41 01:31:48 31° 246° (WSW) 01:35:57 436.795 FM
Oscar 19 21 Apr 01:35:51 01:38:46 15° 91° (E) 01:41:40 437.125 CW, 437.150 USB
Oscar 16 21 Apr 01:43:45 01:47:28 20° 93° (E) 01:51:11 437.025 USB, Beacon 2401.1428
OPAL 21 Apr 01:46:48 01:50:08 18° 61° (ENE) 01:53:30 ?
UOSAT-12 21 Apr 02:01:10 02:05:31 35° 52° (NE) 02:09:48 437.025 FM, 437.400 FM
PCSat 21 Apr 02:01:14 02:05:29 23° 310° (NW) 02:09:45 145.825 MHz
Uribyol 2 21 Apr 02:21:42 02:25:46 23° 95° (E) 02:29:50 436.500 FM
KITSAT 1 21 Apr 02:30:39 02:38:27 54° 112° (ESE) 02:46:18 435.175 FM
AO-27 21 Apr 03:02:03 03:07:08 56° 101° (E) 03:12:12 436.795 MHz FM
AO-Echo 21 Apr 03:02:30 03:07:01 42° 99° (E) 03:11:27 ?
Gurwin Techsat 1B 21 Apr 03:05:05 03:08:38 18° 92° (E) 03:12:09 435.225 FM
ITAMSAT 1 21 Apr 03:12:15 03:17:25 69° 102° (ESE) 03:22:34 435.822 SSB
Oscar 19 21 Apr 03:13:21 03:18:29 60° 287° (WNW) 03:23:34 437.125 CW, 437.150 USB
Oscar 16 21 Apr 03:22:04 03:27:02 46° 289° (WNW) 03:31:58 437.025 USB, Beacon 2401.1428
OPAL 21 Apr 03:23:39 03:28:33 54° 258° (WSW) 03:33:33 ?
UOSAT-12 21 Apr 03:41:37 03:45:30 26° 248° (WSW) 03:49:21 437.025 FM, 437.400 FM
TMSAT-1 21 Apr 03:51:11 03:56:01 35° 97° (E) 04:00:49 436.925 FM
AO-7 21 Apr 03:52:24 03:54:30 11° 88° (E) 03:56:35 29.400 - 29.500 MHz
Uribyol 2 21 Apr 04:00:33 04:05:21 39° 290° (WNW) 04:10:08 436.500 FM
KITSAT 1 21 Apr 04:26:49 04:34:08 36° 312° (NW) 04:41:30 435.175 FM
AO-Echo 21 Apr 04:42:12 04:45:28 19° 295° (WNW) 04:48:41 ?
AO-27 21 Apr 04:42:51 04:46:11 18° 297° (WNW) 04:49:32 436.795 MHz FM
Gurwin Techsat 1B 21 Apr 04:43:44 04:48:53 52° 288° (WNW) 04:54:00 435.225 FM
ITAMSAT 1 21 Apr 04:53:36 04:56:19 15° 298° (WNW) 04:59:01 435.822 SSB
Uosat F 21 Apr 05:00:46 05:05:43 58° 101° (E) 05:10:37 435.120 FM
JAS-1B 21 Apr 05:05:30 05:11:11 77° 103° (ESE) 05:17:13 435.800 - 435.900 CW/SSB
RS-15 21 Apr 05:08:02 05:15:11 19° 100° (E) 05:22:09 29.354 - 29.394 USB, Beacon 29.352 USB
TMSAT-1 21 Apr 05:31:22 05:35:46 27° 293° (WNW) 05:40:09 436.925 FM
AO-7 21 Apr 05:40:14 05:48:34 71° 105° (ESE) 05:56:52 29.400 - 29.500 MHz
STRAND 1 21 Apr 06:05:33 06:09:42 26° 67° (ENE) 06:13:50 ?
MaSat-1 21 Apr 06:18:51 06:20:52 16° 61° (ENE) 06:23:04 437.345 MHz
KITSAT 1 21 Apr 06:30:37 06:32:27 11° 338° (NNW) 06:34:17 435.175 FM
Hamsat 21 Apr 06:36:35 06:40:07 24° 95° (E) 06:43:37 145.90 MHz
Uosat F 21 Apr 06:41:02 06:44:00 16° 297° (WNW) 06:46:57 435.120 FM
JAS-1B 21 Apr 06:58:42 07:01:13 13° 301° (WNW) 07:03:45 435.800 - 435.900 CW/SSB
RS-15 21 Apr 07:14:32 07:25:57 87° 119° (ESE) 07:36:59 29.354 - 29.394 USB, Beacon 29.352 USB
AO-7 21 Apr 07:34:09 07:40:37 26° 303° (WNW) 07:47:06 29.400 - 29.500 MHz
STRAND 1 21 Apr 07:44:01 07:48:41 36° 262° (W) 07:53:23 ?
MaSat-1 21 Apr 07:56:34 07:59:11 23° 249° (WSW) 08:02:12 437.345 MHz
JAS-2 21 Apr 08:10:19 08:15:47 69° 102° (ESE) 08:21:53 435.800 - 435.900 CW/SSB, 435.910 FM
Hamsat 21 Apr 08:12:20 08:16:03 28° 290° (WNW) 08:19:46 145.90 MHz
SO-67 21 Apr 08:20:16 08:23:46 71° 101° (E) 08:27:15 435.3500 MHz FM
Sapphire 21 Apr 08:22:39 08:25:33 14° 44° (NE) 08:28:26 437.095 MHz 1200 baud AX-25 AFSK
PANSAT 21 Apr 09:02:00 09:04:34 17° 173° (S) 09:07:08 not established
PCSat 21 Apr 09:06:06 09:10:56 32° 53° (NE) 09:15:43 145.825 MHz
RS-15 21 Apr 09:30:20 09:39:45 30° 324° (NW) 09:49:02 29.354 - 29.394 USB, Beacon 29.352 USB
HO-68 21 Apr 09:54:11 10:01:03 47° 100° (E) 10:07:53 435.675 MHz FM
Oscar 11 21 Apr 09:55:02 09:57:38 15° 93° (E) 10:00:14 145.825 FM, Beacon 2401.500 USB
JAS-2 21 Apr 09:57:20 10:00:26 16° 297° (WNW) 10:03:41 435.800 - 435.900 CW/SSB, 435.910 FM
Sapphire 21 Apr 10:04:19 10:09:46 88° 63° (ENE) 10:15:10 437.095 MHz 1200 baud AX-25 AFSK
KITSAT 1 21 Apr 10:25:53 10:32:05 23° 40° (NE) 10:38:15 435.175 FM
PANSAT 21 Apr 10:41:36 10:44:11 17° 186° (S) 10:46:45 not established
